Other Public Products
Issued by NWS Grand Forks, ND

Home | Current Version | Previous Version | Graphics & Text | Print | Product List | Glossary On
Versions: 1 2 3 4 5 6 7 8 9 10 11 12 13 14 15 16 17 18 19 20 21 22 23 24 25 26 27 28 29 30 31 32 33 34 35 36 37 38 39 40 41 42 43 44 45 46 47 48 49 50
000
FPUS83 KFGF 261331
OPUFGF
PRAIRIE TO PINES WEATHER ROUNDUP
NATIONAL WEATHER SERVICE EASTERN NORTH DAKOTA/GRAND FORKS ND
700 AM CST MON JAN 26 2015

 **SATELLITE DATA USED TO AUGMENT SKY COVER AT AUTOMATED STATIONS**
 *****  WEATHER ACROSS EASTERN NORTH DAKOTA  *****

CITY           SKY/WX    TMP DP  RH WIND       PRES   REMARKS
GRAND FORKS    PTCLDY    34  29  82 NW10      29.67R
GRAND FORKS AF CLEAR     37  29  75 NW14G21   29.68R
GRAND CITY NWS   N/A     32 N/A N/A NW14        N/A  WCI  22
BUXTON         NOT AVBL
DEVILS LAKE    CLEAR     34  28  80 NW15      29.73R WCI  24
FARGO          CLEAR     32  28  85 W10       29.70R WCI  24
WAHPETON ARPT  SUNNY     32  30  93 W12       29.72R WCI  23
$$

 *****  WEATHER ACROSS CENTRAL AND WESTERN NORTH DAKOTA  *****

CITY           SKY/WX    TMP DP  RH WIND       PRES   REMARKS
JAMESTOWN      CLEAR     37  31  78 NW20      29.75R
BISMARCK       PTCLDY    38  32  79 NW7       29.86R
MINOT          CLEAR     38  29  70 W17       29.83R
MINOT AFB      CLEAR     35  35  96 NW20      29.82R WCI  25
GARRISON         N/A     37  31  78 NW17      29.84R
WILLISTON      CLEAR     35  30  82 SW8       29.92R
DICKINSON      CLEAR     35  31  85 W14       29.89S
HETTINGER      CLEAR     34  30  85 W10       29.93S
$$

 *****  OTHER OBSERVATIONS NORTHEAST NORTH DAKOTA  *****

CITY           SKY/WX    TMP DP  RH WIND       PRES   REMARKS
WALHALLA         N/A     37  34  87 NW18G24   29.68R
LANGDON        FAIR      32  28  86 NW21      29.69R WCI  20
CAVALIER       CLOUDY    39  32  75 NW18G26   29.66R
GRAFTON        NOT AVBL
CANDO          FAIR      30  27  86 NW14      29.75R WCI  20
FORT TOTTEN      N/A     35  30  82 NW9       29.95S
ROLLA          FAIR      36  32  87 NW33G40   29.73R
RUGBY          FAIR      32  28  86 NW15      29.79R WCI  22
 ***** THE ABOVE OBSERVATIONS ARE NON NWS ARE NOT QUALITY
        CONTROLLED AND MAY MIS-REPORT RAIN FOR SNOW...
$$

 *****  OTHER OBSERVATIONS SOUTHEAST NORTH DAKOTA *****

CITY           SKY/WX    TMP DP  RH WIND       PRES   REMARKS
COOPERSTOWN    NOT AVBL
VALLEY CITY    NOT AVBL
OAKES            N/A     34  34 100 W14       29.77S WCI  24
GWINNER        SUNNY     37  36  93 W15       29.76S
SHEYENNE NWR     N/A     36  31  83 NW9       29.95S
BUFFALO        NOT AVBL
WYNDMERE         N/A     36  32  87 W12         N/A
 ***** THE ABOVE OBSERVATIONS ARE NON NWS ARE NOT QUALITY
       CONTROLLED AND MAY MIS-REPORT RAIN FOR SNOW...
$$

  *****  WEATHER ACROSS NORTHERN MINNESOTA  *****

CITY           SKY/WX    TMP DP  RH WIND       PRES   REMARKS
FLAG ISLAND    LGT SNOW  30  28  93 NW13      29.54R WCI  20
WARROAD        CLOUDY    34  30  86 W9        29.57R
ROSEAU         CLOUDY    34  28  80 W10G18    29.58R
HALLOCK        CLOUDY    37  32  81 NW17      29.64R
THF RVR FALLS  CLOUDY    36  30  80 W13       29.63R
HALSTAD          N/A     32  27  81 W10         N/A  WCI  23
FOSSTON        CLOUDY    30  28  93 W13       29.64R WCI  20
BAUDETTE       CLOUDY    31  28  89 W5        29.53R
WASKISH        CLOUDY    30  28  93 SW9       29.57S WCI  22
CROOKSTON      CLEAR     28  27  93 NW12      29.67R WCI  18
$$
  *****  WEATHER ACROSS CENTRAL AND WEST MINNESOTA  *****

CITY           SKY/WX    TMP DP  RH WIND       PRES   REMARKS
BEMIDJI        CLOUDY    32  29  89 W13       29.60R WCI  22
PARK RAPIDS    PTCLDY    29  26  89 W9        29.60F WCI  20
WADENA         CLEAR     27  25  93 W7        29.64F WCI  19
DETROIT LAKES  CLEAR     32  32 100 NW16      29.66S WCI  21
MOORHEAD       CLEAR     34  34 100 W9        29.71R
FERGUS FALLS   PTCLDY    28  27  93 NW10      29.73R WCI  19
ELBOW LAKE     FAIR      30  29  94 NW10      29.70R WCI  21
MORRIS MN      PTCLDY    34  30  86 NW12      29.70R
STAPLES        MOCLDY    28  27  93 W8        29.64R WCI  20
WHEATON        PTCLDY    34  30  86 W14G21    29.75R WCI  24
$$
  *****  WEATHER ELSEWHERE ACROSS MINNESOTA  *****

CITY           SKY/WX    TMP DP  RH WIND       PRES   REMARKS
DULUTH         FRZ DRZL  21  17  84 S16       29.61F WCI   7
INTRNTL FALLS  LGT SNOW  25  23  92 VRB5      29.55S FOG     WCI  19
ELY            LGT SNOW  19  18  93 S8        29.60S WCI   9
CLOQUET        CLOUDY    21  19  93 S8        29.63F FOG     WCI  12
BRAINERD       CLOUDY    28  26  92 SW8       29.64S WCI  20
HIBBING        CLOUDY    22  19  89 S7        29.59F FOG     WCI  13
ALEXANDRIA     PTCLDY    32  28  85 NW12      29.67R WCI  23
SAINT CLOUD    CLOUDY    29  28  96 VRB5      29.66F WCI  24
MINNEAPOLIS    CLOUDY    29  25  85 S9        29.72F WCI  20
$$

  *****  WEATHER ACROSS SOUTH DAKOTA  *****

CITY           SKY/WX    TMP DP  RH WIND       PRES   REMARKS
SIOUX FALLS    PTCLDY    36  31  82 NW14      29.79S
BROOKINGS      NOT AVBL
WATERTOWN      CLEAR     33  30  88 NW12      29.77R WCI  24
HURON          CLEAR     36  32  85 NW15      29.84R
SISSETON         N/A     38  33  82 NW17      29.73R
ABERDEEN       PTCLDY    34  30  85 NW9       29.82R
MITCHELL       CLEAR     37  32  82 W14       29.85R
PIERRE         PTCLDY    40  33  76 W13       29.91R
MOBRIDGE       MOCLDY    39  34  82 NW9       29.86R
RAPID CITY     CLEAR     45  27  49 W8        30.00R
$$

  *****  SOME WEATHER IN NEARBY STATES *****

CITY           SKY/WX    TMP DP  RH WIND       PRES   REMARKS
GLASGOW MT     CLEAR     31  28  89 W6        29.96R
GREAT FALLS MT MOCLDY    53  27  36 SW15      30.03S
CHEYENNE WY    MOCLDY    44  23  43 W9        30.22R
SCOTTSBLUFF NE CLEAR     37  30  75 N9        30.12S
OMAHA NE       PTCLDY    28  26  92 S8        29.89F WCI  20
DES MOINES IA  MOCLDY    33  27  78 S7        29.93F
DAVENPORT IA   CLOUDY    19  13  77 S5        29.98R WCI  12
CHICAGO IL     MOCLDY    16  12  84 NW5       29.95S WCI   9
EAU CLAIRE WI  FLURRIES  20  17  88 S9        29.77F WCI   9
LA CROSSE WI   LGT SNOW  22  19  89 S8        29.85F FOG     WCI  12
$$

  *****  SOME NATIONAL WEATHER *****

CITY           SKY/WX    TMP DP  RH WIND       PRES   REMARKS
LA GUARDIA NY  FLURRIES  24  16  71 NE21      30.01S WCI   9
RALEIGH NC     LGT RAIN  40  37  89 E3        29.68F FOG
ATLANTA GA     CLOUDY    44  38  79 W12G21    29.78R
NEW ORLEANS LA PTCLDY    48  35  60 NW10      30.10R
OKLAHOMA CITY  CLEAR     28  24  85 S6        30.13S WCI  22
ALBUQUERQUE NM PTCLDY    34  24  67 N10       30.36R
SALT LAKE CITY CLEAR     32  28  85 SE7       30.40F
LOS ANGELES CA CLOUDY    62  39  42 CALM      29.98S
BOISE ID       CLEAR     29  28  96 SE5       30.34F FOG     WCI  24
SEATTLE WA     FOG       46  45  96 S7        29.95R VSB 1/8
$$

*** WEATHER ACROSS MANITOBA...SASKATCHEWAN AND ONTARIO ***
                ***ONTARIO***

CITY           SKY/WX    TMP DP  RH WIND       PRES   REMARKS
GERALDTON      PTCLDY    -6  -9  84 E3        29.78R
THUNDER BAY    LGT SNOW  12  10  92 CALM      29.74F
SIOUX LOOKOUT  FLURRIES  18  14  86 SE6       29.58R WCI   9
TORONTO        PTCLDY     7   0  72 NE13      30.02R WCI  -9
BIG TROUT LK   CLEAR     -2  -4  92 E5        29.74S WCI -12
PICKLE LAKE    LGT SNOW  10   7  85 SE7       29.64R WCI   0
DRYDEN         CLOUDY    19  18  93 SE6       29.55S WCI  11
KENORA         LGT SNOW  23  21  93 SW2       29.53R
$$
                *** MANITOBA***

CITY           SKY/WX    TMP DP  RH WIND       PRES   REMARKS
BRANDON        PTCLDY    34  30  86 NW24G33   29.72R WCI  21
DAUPHIN        MOCLDY    28  27  93 NE5       29.78R WCI  23
ISLAND LAKE    FLURRIES   5   3  92 VRB2      29.71R
PILOT MOUND      N/A     34  28  80 W15         N/A  WCI  24
THE PAS        CLOUDY    12   9  85 NW9       29.82R WCI   0
THOMPSON       FLURRIES   5   0  78 N3        29.79R
WINNIPEG       MOCLDY    36  30  80 NW21G28   29.62R
LYNN LAKE      LGT SNOW   3   1  92 S3        29.74R
CHURCHILL      PTCLDY   -15 -20  76 SE7       29.91S WCI -31
GILLAM         CLOUDY    -4  -8  84 NE6       29.82R WCI -16
$$
                ***SASKATCHEWAN***

CITY           SKY/WX    TMP DP  RH WIND       PRES   REMARKS
ESTEVAN        CLOUDY    36  30  80 W13       29.86R
KINDERSLEY     PTCLDY    27  23  86 S6        29.89S WCI  20
LLOYDMINSTER   CLOUDY    36  28  75 SW7       29.83
PRINCE ALBERT  PTCLDY    27  25  93 W7        29.82R WCI  19
REGINA         MOCLDY    36  30  80 W12       29.88R



USA.gov is the U.S. government's official web portal to all federal, state and local government web resources and services.